Weather History for Quincy, IL

Change the Weather History Date:

Monday, May 28, 2012

  Actual Average Record
Temperature  
Mean Temperature 81 °F 66 °F  
Max Temperature 90 °F 76 °F 94 °F (1914)
Min Temperature 73 °F 57 °F 38 °F (1992)
Degree Days  
Heating Degree Days 0 2  
Month to date heating degree days 130  
Since 1 July heating degree days 5560  
Cooling Degree Days 16 4  
Month to date cooling degree days 55  
Year to date cooling degree days 73  
Growing Degree Days 31 (Base 50)    
Moisture  
Dew Point 64 °F    
Average Humidity 58    
Maximum Humidity 83    
Minimum Humidity 42    
Precipitation  
Precipitation 0.09 in 0.16 in 1.75 in (1918)
Month to date precipitation 4.08  
Year to date precipitation 13.63  
Sea Level Pressure  
Sea Level Pressure 29.77 in    
Wind  
Wind Speed 14 mph (SSW)    
Max Wind Speed 26 mph    
Max Gust Speed 36 mph    
Visibility 9 miles    
Events Rain , Thunderstorm    
T = Trace of Precipitation, MM = Missing Value Source: NWS Daily Summary

Daily Weather History Graph

Daily Weather History Graph

Search for Another Location

Airport:

Trip Planner

Search our weather history database for the weather conditions in past years. The results will help you decide how hot, cold, wet, or windy it might be!

Date:

Astronomy

May. 28, 2012 Rise Set
Actual Time 5:39 AM CDT 8:24 PM CDT
Civil Twilight 5:08 AM CDT 8:56 PM CDT
Nautical Twilight 4:28 AM CDT 9:36 PM CDT
Astronomical Twilight 3:42 AM CDT 10:22 PM CDT
Moon 12:50 PM CDT (5/28) 1:02 AM CDT (5/28)
Length of Visible Light 15h 48m
Length of Day
14h 45m
Waxing Crescent, 49% of the Moon is Illuminated
May 28
Waxing Crescent
May 28
First Quarter
Jun 4
Full
Jun 11
Last Quarter
Jun 19
New

Hourly Weather History & Observations

Time (CDT) Temp. Heat Index Dew Point Humidity Pressure Visibility Wind Dir Wind Speed Gust Speed Precip Events Conditions
12:54 AM 81.0 °F 81.7 °F 61.0 °F 50% 29.77 in 10.0 mi South 16.1 mph 23.0 mph N/A   Clear
1:54 AM 80.1 °F 81.1 °F 61.0 °F 52% 29.78 in 10.0 mi South 16.1 mph - N/A   Clear
2:54 AM 78.1 °F - 61.0 °F 56% 29.78 in 10.0 mi South 11.5 mph - N/A   Clear
3:54 AM 78.1 °F - 60.1 °F 54% 29.79 in 10.0 mi South 11.5 mph - N/A   Clear
4:54 AM 75.9 °F - 61.0 °F 60% 29.79 in 10.0 mi South 10.4 mph - N/A   Clear
5:54 AM 75.9 °F - 61.0 °F 60% 29.80 in 10.0 mi South 12.7 mph - N/A   Clear
6:54 AM 75.9 °F - 61.0 °F 60% 29.80 in 10.0 mi South 12.7 mph - N/A   Clear
7:54 AM 80.1 °F 81.2 °F 62.1 °F 54% 29.78 in 10.0 mi South 13.8 mph 24.2 mph N/A   Clear
8:54 AM 82.0 °F 83.1 °F 63.0 °F 52% 29.77 in 10.0 mi South 17.3 mph 27.6 mph N/A   Scattered Clouds
9:39 AM 82.4 °F 83.4 °F 62.6 °F 51% 29.81 in 10.0 mi SW 19.6 mph 33.4 mph N/A Thunderstorm Mostly Cloudy
9:54 AM 79.0 °F - 64.0 °F 60% 29.80 in 3.0 mi West 26.5 mph 35.7 mph 0.03 in Rain , Thunderstorm Light Thunderstorms and Rain
9:56 AM 77.0 °F - 64.4 °F 65% 29.82 in 1.8 mi WSW 13.8 mph 35.7 mph 0.02 in Rain , Thunderstorm Thunderstorms and Rain
10:05 AM 73.4 °F - 66.2 °F 78% 29.82 in 3.0 mi SSW 11.5 mph - 0.04 in Rain , Thunderstorm Light Thunderstorms and Rain
10:54 AM 73.0 °F - 66.0 °F 79% 29.79 in 10.0 mi South 13.8 mph - 0.06 in Thunderstorm Scattered Clouds
11:11 AM 75.2 °F - 69.8 °F 83% 29.80 in 10.0 mi South 12.7 mph - N/A   Partly Cloudy
11:54 AM 82.9 °F 85.8 °F 68.0 °F 60% 29.77 in 10.0 mi South 11.5 mph 20.7 mph N/A   Clear
12:54 PM 86.0 °F 88.8 °F 66.9 °F 53% 29.76 in 10.0 mi SW 12.7 mph 25.3 mph N/A   Mostly Cloudy
1:54 PM 87.1 °F 89.2 °F 66.0 °F 49% 29.74 in 10.0 mi SSW 13.8 mph 21.9 mph N/A   Mostly Cloudy
2:54 PM 88.0 °F 90.3 °F 66.0 °F 48% 29.74 in 10.0 mi SW 13.8 mph 21.9 mph N/A   Overcast
3:54 PM 88.0 °F 90.3 °F 66.0 °F 48% 29.73 in 10.0 mi SW 15.0 mph 18.4 mph N/A   Scattered Clouds
4:54 PM 89.1 °F 90.3 °F 64.0 °F 43% 29.73 in 10.0 mi WSW 17.3 mph 26.5 mph N/A   Partly Cloudy
5:54 PM 89.1 °F 90.0 °F 63.0 °F 42% 29.72 in 10.0 mi SW 15.0 mph - N/A   Clear
6:54 PM 87.1 °F 87.8 °F 63.0 °F 44% 29.72 in 10.0 mi SW 6.9 mph - N/A   Clear
7:54 PM 82.0 °F 83.8 °F 64.9 °F 56% 29.73 in 10.0 mi SW 6.9 mph - N/A   Clear
8:54 PM 78.1 °F - 66.0 °F 66% 29.74 in 10.0 mi SSW 4.6 mph - N/A   Scattered Clouds
9:54 PM 75.0 °F - 63.0 °F 66% 29.78 in 10.0 mi North 5.8 mph - N/A   Clear
10:54 PM 75.0 °F - 63.0 °F 66% 29.80 in 10.0 mi NNW 4.6 mph - N/A   Mostly Cloudy
11:54 PM 75.0 °F - 57.9 °F 55% 29.81 in 10.0 mi NNW 15.0 mph - N/A   Clear